Flag for Germany Weather past 2 weeks in Zittau, Saxony, Germany

Now
75 °F

Passing clouds.


Feels Like: 78 °F
Forecast: 55 / 81 °F
Wind: 1 mph from North

Location: Liberec

Current Time: Jul 1, 2015 at 9:21:49 PM

Latest Report: Jul 1, 2015 at 8:00 PM


Visibility: 25 mi

Pressure: 30.16 "Hg

Humidity: 43%

Dew point: 51 °F

Location of ZittauLocation

Historic Weather in Zittau — Graph

°F

Zittau temperature yesterday

Maximum temperature yesterday: 75 °F (at 2:00 PM)
Minimum temperature yesterday: 57 °F (at 3:00 AM)
Average temperature yesterday: 65 °F

Past Weeks' High & Low Weather Summary

 TemperatureHumidityPressure
High80 °F (Jul 1, 4:00 PM)97% (Jun 19, 12:00 AM)30.27 "Hg (Jun 19, 12:00 AM)
Low42 °F (Jun 25, 2:00 AM)36% (Jun 17, 5:00 PM)29.67 "Hg (Jun 23, 7:00 AM)
Average57 °F75%30.06 "Hg
* Reported Jun 16 8:00 PM — Jul 1 8:00 PM, Zittau, Weather by CustomWeather, © 2015

Note: Actual official high and low records may vary slightly from our data, if they occured in-between our weather recording intervals... More about our weather records

Advertising

Zittau weather history for previous 24 hours

 ConditionsComfort  
Time TempWeatherWind HumidityBarometerVisibility
8:00 PM
Wed, Jul 1
75 °FPassing clouds.1 mph43%30.16 "Hg25 mi
7:00 PM77 °FWarm.2 mph40%30.15 "Hg12 mi
6:00 PM78 °FPleasantly warm.2 mph40%30.14 "Hg12 mi
5:00 PM79 °FScattered clouds.2 mph40%30.14 "Hg28 mi
4:00 PM80 °FScattered clouds.1 mph37%30.15 "Hg25 mi
3:00 PM79 °FScattered clouds.2 mph40%30.15 "Hg25 mi
2:00 PM76 °FScattered clouds.5 mph42%30.16 "Hg25 mi
1:00 PM77 °FScattered clouds.2 mph43%30.17 "Hg25 mi
12:00 PM75 °FScattered clouds.3 mph43%30.18 "Hg25 mi
11:00 AM74 °FPassing clouds.2 mph44%30.19 "Hg19 mi
10:00 AM71 °FPassing clouds.2 mph56%30.20 "Hg19 mi
9:00 AM67 °FPassing clouds.2 mph62%30.20 "Hg19 mi
8:00 AM63 °FPassing clouds.1 mph69%30.21 "Hg16 mi
7:00 AM59 °FCool.1 mph77%30.21 "Hg12 mi
6:00 AM53 °FCool.1 mph96%30.23 "Hg10 mi
5:00 AM50 °FFog.1 mph96%30.23 "Hg3 mi
4:00 AM51 °FFog.No wind94%30.22 "Hg4 mi
3:00 AM52 °FCool.No wind93%30.22 "Hg6 mi
2:00 AM53 °FFog.1 mph88%30.21 "Hg5 mi
1:00 AM54 °FCool.1 mph85%30.21 "Hg8 mi
12:00 AM56 °FCool.No wind82%30.20 "Hg12 mi
11:00 PM
Tue, Jun 30
58 °FCool.1 mph75%30.19 "Hg12 mi
10:00 PM62 °FPassing clouds.1 mph68%30.17 "Hg25 mi
9:00 PM66 °FPassing clouds.1 mph60%30.14 "Hg25 mi
Weather by CustomWeather, © 2015

See weather overviewHow to use our weather pages